Location: Rometta
(44.2000°N, 10.0500°E)
Time: 11:59:47
(UTC+00:00)

CZ-4 R/B - Pass Details

Date: 20 January 2021
Orbit: 531 x 598 km, 97.7° (Epoch: 06 March)

Event Time Altitude Azimuth Distance (km) Brightness Sun altitude
Rises 17:49:28 0° 164° (SSE) 2,805 4.9 -17.0°
Reaches altitude 10° 17:51:38 10° 164° (SSE) 1,900 4.0 -17.4°
Maximum altitude 17:55:45 84° 78° (ENE) 586 1.3 -18.1°
Drops below altitude 10° 17:59:50 10° 349° (NNW) 1,876 4.0 -18.8°
Sets 18:01:58 0° 348° (NNW) 2,766 4.9 -19.2°
